This is the latest recevied weather packets stored in our database for station/object VE4GLS. If no packets are shown the sender has not sent any weather packets the latest 10 day(s).
| Time | Temp. | Humidity | Pressure | Rain* | Wind** | Luminosity | Snow |
|---|---|---|---|---|---|---|---|
| 1777821456 | 16.11° C | 40% | 1003.5 hPa | 0 mm | - | - | - |
| 1777821194 | 16.11° C | 41% | 1003.5 hPa | 0 mm | - | - | - |
| 1777820593 | 15.56° C | 43% | 1003.7 hPa | 0 mm | - | - | - |
| 1777820555 | 15.56° C | 43% | 1003.7 hPa | 0 mm | - | - | - |
| 1777819993 | 15° C | 44% | 1003.9 hPa | 0 mm | - | - | - |
| 1777819654 | 14.44° C | 46% | 1004.1 hPa | 0 mm | - | - | - |
| 1777819393 | 14.44° C | 46% | 1004.2 hPa | 0 mm | - | - | - |
| 1777818793 | 13.89° C | 48% | 1004.4 hPa | 0 mm | - | - | - |
| 1777818755 | 13.89° C | 48% | 1004.4 hPa | 0 mm | - | - | - |
| 1777818194 | 13.33° C | 50% | 1004.7 hPa | 0 mm | - | - | - |
| 1777817856 | 12.78° C | 50% | 1004.8 hPa | 0 mm | - | - | - |
| 1777817594 | 12.78° C | 50% | 1004.8 hPa | 0 mm | - | - | - |
| 1777816993 | 12.22° C | 52% | 1005.1 hPa | 0 mm | - | - | - |
| 1777816955 | 12.22° C | 52% | 1005.1 hPa | 0 mm | - | - | - |
| 1777816393 | 11.11° C | 54% | 1005.1 hPa | 0 mm | - | - | - |
| 1777816054 | 10.56° C | 55% | 1005.3 hPa | 0 mm | - | - | - |
| 1777815793 | 10° C | 57% | 1005.2 hPa | 0 mm | - | - | - |
| 1777815194 | 8.89° C | 60% | 1005.5 hPa | 0 mm | - | - | - |
| 1777815156 | 8.89° C | 61% | 1005.5 hPa | 0 mm | - | - | - |
| 1777814593 | 7.78° C | 63% | 1005.6 hPa | 0 mm | - | - | - |
| 1777814254 | 7.22° C | 65% | 1005.6 hPa | 0 mm | - | - | - |
| 1777813994 | 6.67° C | 66% | 1005.7 hPa | 0 mm | - | - | - |
| 1777813394 | 5.56° C | 67% | 1005.7 hPa | 0 mm | - | - | - |
| 1777813354 | 5.56° C | 68% | 1005.8 hPa | 0 mm | - | - | - |
| 1777812794 | 4.44° C | 72% | 1005.8 hPa | 0 mm | - | - | - |
* Rain latest hour (hover to see other rain measurements)
** Current wind speed in m/s (hover to see current wind gust speed)